Miscellaneous Local Product
Issued by NWS North Platte, NE

Home | Current Version | Previous Version | Graphics & Text | Print | Product List | Glossary On
Versions: 1 2 3 4 5 6 7 8 9 10 11 12 13 14 15 16 17 18 19 20 21 22 23 24 25 26 27 28 29 30 31 32 33 34 35 36 37 38 39 40 41 42 43 44 45 46 47 48 49 50
000
AXUS43 KLBF 181710
MISLBF


WESTERN AND NORTH CENTRAL NEBRASKA HOURLY WEATHER ROUNDUP
NATIONAL WEATHER SERVICE NORTH PLATTE NE
1200 PM CDT THU SEP 18 2014

***STATIONS NOT REPORTING VARIABLES SUCH AS SKY/WEATHER OR
PRESSURE ARE PROVIDED BY THE NEBRASKA DEPARTMENT OF
ROADS...RAWS...AND APRS NETWORKS...AND ARE NOT UNDER
NATIONAL WEATHER SERVICE QUALITY CONTROL***

...OBSERVATIONS IN AND NEAR THE EASTERN PANHANDLE OF NEBRASKA...

CITY           SKY/WX    TMP DP  RH WIND       PRES   REMARKS
PINE RIDGE     SUNNY     75  59  57 S14       29.90S
CHADRON        SUNNY     78  56  46 S7        29.88F
ALLIANCE       SUNNY     73  59  61 S14       29.96S
SIDNEY         SUNNY     73  57  57 S13       30.01F
WHITECLAY        N/A     74  58  57 S15         N/A
RUSHVILLE        N/A     79  56  44 SW20        N/A
LISCO            N/A     76  60  57 E12         N/A
BIG SPRINGS      N/A     66  64  94 SE7         N/A
$$

...OBSERVATIONS IN NORTH CENTRAL NEBRASKA...

CITY           SKY/WX    TMP DP  RH WIND       PRES   REMARKS
VALENTINE      CLOUDY    72  61  68 S16G23    29.93F
THEDFORD       CLOUDY    68  61  78 S16       29.99R
AINSWORTH      SUNNY     72  56  57 S17G25    29.97S
O`NEILL        CLOUDY    67  61  81 S17G25    30.00S
ORD            PTSUNNY   68  59  73 SE12      30.00S
BROKEN BOW     SUNNY     73  57  57 SE17      29.99F
SPRINGVIEW       N/A     72  59  63 SE12G22     N/A
ROSE             N/A     74  65  72 E17         N/A
NEWPORT          N/A     71  62  75 S17         N/A
COMSTOCK         N/A     77  64  62 S17         N/A
CHAMBERS         N/A     67  60  79 S6G20       N/A
$$

...OBSERVATIONS IN SOUTHWEST NEBRASKA AND FAR NORTHEAST COLORADO...

CITY           SKY/WX    TMP DP  RH WIND       PRES   REMARKS
WRAY           FAIR      74  61  62 E5        30.00F
HOLYOKE        CLOUDY    72  64  78 SE12      30.01S
IMPERIAL       CLOUDY    65  63  93 SE10      30.00S FOG
OGALLALA       CLOUDY    68  64  89 S9        29.99F
NORTH PLATTE   CLOUDY    68  61  78 SE10      29.99S
MCCOOK         CLOUDY    64  63  96 SE10      29.99S FOG
LEXINGTON      CLOUDY    66  62  85 S15       30.00R
PAXTON           N/A     64  63  96 S5          N/A
SUTHERLAND       N/A     62  60  93 S6          N/A
BRADY            N/A     69  62  79 CALM        N/A
GOTHENBURG       N/A     67  57  71 SE8         N/A
CALLAWAY         N/A     66  61  85 S12         N/A
$$

...SOME WEATHER OBSERVATIONS FROM AROUND THE REGION...

CITY           SKY/WX    TMP DP  RH WIND       PRES   REMARKS
DENVER         MOSUNNY   78  41  26 VRB3      30.07S
LARAMIE        SUNNY     73  40  30 S7        30.17F
CHEYENNE       SUNNY     82  34  17 S7        30.09F
SCOTTSBLUFF    SUNNY     71  55  56 CALM      29.96F
RAPID CITY     SUNNY     74  55  51 SE5       29.85F
PIERRE         SUNNY     74  58  57 S21       29.85F
WINNER         FAIR      75  59  57 S20G30    29.92F
SIOUX FALLS    MOSUNNY   73  55  53 S18G25    30.02S
OMAHA          MOSUNNY   70  57  63 SE8       30.04S
GRAND ISLAND   SUNNY     72  59  63 SE17G23   30.01S
KANSAS CITY    CLOUDY    64  60  87 E9        30.04S
WICHITA        MOSUNNY   79  58  48 SE21G30   30.00F
HAYS           CLOUDY    66  63  88 E8        29.97R
LIBERAL        SUNNY     84  61  45 SW14      30.00S
GOODLAND       SUNNY     70  62  76 VRB5      30.01S
$$



USA.gov is the U.S. government's official web portal to all federal, state and local government web resources and services.